SQ5DCP-1 Weather Reports


Display with metric or nautical units.
time (UTC)temp
F
wind
direction
speed
MPH
gust
MPH
rain 1hr
in
rain 24hr
in
rain mn
in
humidity
%
barometer
mb
20170820060101 59 270 2.0 0.0 0.00 0.00 0.00 83 1012.1
20170820055601 59 292 2.0 0.0 0.00 0.00 0.00 83 1012.1
20170820055101 59 292 0.0 0.0 0.00 0.00 0.00 83 1012.1
20170820054601 59 337 0.0 0.0 0.00 0.00 0.00 84 1012.0
20170820054101 59 337 0.0 0.0 0.00 0.00 0.00 84 1012.0
20170820053601 59 0 0.0 0.0 0.00 0.00 0.00 84 1012.0
20170820053101 59 45 0.0 0.0 0.00 0.00 0.00 84 1012.1
20170820052601 59 45 0.0 0.0 0.00 0.00 0.00 84 1012.1
20170820052101 59 45 0.0 0.0 0.00 0.00 0.00 84 1012.1
20170820051603 59 45 0.0 0.0 0.00 0.00 0.00 84 1012.1
20170820051101 59 67 1.0 0.0 0.00 0.00 0.00 84 1012.1
20170820050601 59 45 0.0 0.0 0.00 0.00 0.00 84 1011.9
20170820050101 59 45 1.0 0.0 0.00 0.00 0.00 84 1011.9
20170820045601 59 337 0.0 0.0 0.00 0.00 0.00 84 1011.9
20170820045101 59 337 0.0 0.0 0.00 0.00 0.00 84 1011.9
20170820044601 59 67 1.0 0.0 0.00 0.00 0.00 84 1012.0
20170820044101 59 337 0.0 0.0 0.00 0.00 0.00 84 1012.0
20170820043601 59 337 0.0 0.0 0.00 0.00 0.00 84 1012.0
20170820043102 59 337 0.0 0.0 0.00 0.00 0.00 84 1012.1
20170820042602 59 337 0.0 0.0 0.00 0.00 0.00 84 1012.2
20170820042101 59 45 0.0 0.0 0.00 0.00 0.00 84 1012.2
20170820041602 59 45 0.0 0.0 0.00 0.00 0.00 84 1012.2
20170820041102 59 67 1.0 0.0 0.00 0.00 0.00 84 1012.3
20170820040602 59 22 0.0 0.0 0.00 0.00 0.00 84 1012.2
20170820040101 59 270 0.0 0.0 0.00 0.00 0.00 84 1012.4
20170820035601 59 270 0.0 0.0 0.00 0.00 0.00 84 1012.4
20170820035101 59 270 0.0 0.0 0.00 0.00 0.00 84 1012.6
20170820034601 59 270 0.0 0.0 0.00 0.00 0.00 84 1012.7
20170820034101 59 270 0.0 0.0 0.00 0.00 0.00 84 1012.7
20170820033601 59 270 0.0 0.0 0.00 0.00 0.00 84 1012.6
20170820033101 59 270 0.0 0.0 0.00 0.00 0.00 84 1012.6
20170820032601 59 270 0.0 0.0 0.00 0.00 0.00 84 1012.7
20170820032101 59 270 0.0 0.0 0.00 0.00 0.00 84 1012.7
20170820031601 59 270 0.0 0.0 0.00 0.00 0.00 84 1012.5
20170820031102 59 270 0.0 0.0 0.00 0.00 0.00 84 1012.5
20170820030601 59 292 0.0 0.0 0.00 0.00 0.00 84 1012.5
20170820030102 59 247 0.0 0.0 0.00 0.00 0.00 84 1012.5
20170820025601 59 247 0.0 0.0 0.00 0.00 0.00 84 1012.4
20170820025101 59 247 0.0 0.0 0.00 0.00 0.00 84 1012.4
20170820024601 59 247 0.0 0.0 0.00 0.00 0.00 84 1012.5
20170820024058 59 247 0.0 0.0 0.00 0.00 0.00 84 1012.4
20170820023558 59 247 0.0 0.0 0.00 0.00 0.00 84 1012.4
20170820023058 59 247 0.0 0.0 0.00 0.00 0.00 85 1012.5
20170820022559 59 247 0.0 0.0 0.00 0.00 0.00 85 1012.5
20170820022059 59 247 0.0 0.0 0.00 0.00 0.00 85 1012.5
20170820021558 59 247 0.0 0.0 0.00 0.00 0.00 85 1012.5
20170820021058 59 247 0.0 0.0 0.00 0.00 0.00 85 1012.5
20170820020558 59 225 0.0 0.0 0.00 0.00 0.00 85 1012.5
20170820020058 59 225 0.0 0.0 0.00 0.00 0.00 85 1012.4
20170820015558 59 225 0.0 0.0 0.00 0.00 0.00 85 1012.4
20170820015058 59 225 0.0 0.0 0.00 0.00 0.00 85 1012.6
20170820014558 59 202 0.0 0.0 0.00 0.00 0.00 85 1012.6
20170820014058 59 202 0.0 0.0 0.00 0.00 0.00 85 1012.6
20170820013558 59 202 0.0 0.0 0.00 0.00 0.00 85 1012.5
20170820013059 59 202 0.0 0.0 0.00 0.00 0.00 85 1012.6
20170820012559 59 202 0.0 0.0 0.00 0.00 0.00 85 1012.7
20170820012059 59 157 0.0 0.0 0.00 0.00 0.00 85 1012.6
20170820011559 59 157 0.0 0.0 0.00 0.00 0.00 85 1012.6
20170820011059 59 157 0.0 0.0 0.00 0.00 0.00 85 1012.7
20170820010559 59 157 0.0 0.0 0.00 0.00 0.00 85 1012.7
20170820010059 59 157 0.0 0.0 0.00 0.00 0.00 85 1012.7
20170820005559 59 157 0.0 0.0 0.00 0.00 0.00 85 1012.7
20170820005058 59 157 0.0 0.0 0.00 0.00 0.00 85 1012.8
20170820004558 59 157 0.0 0.0 0.00 0.00 0.00 85 1012.9
20170820004058 59 157 0.0 0.0 0.00 0.00 0.00 85 1013.1
20170820003559 59 157 0.0 0.0 0.00 0.00 0.00 85 1013.3
20170820003059 59 157 0.0 0.0 0.00 0.00 0.00 85 1013.3
20170820002559 59 157 0.0 0.0 0.00 0.00 0.00 85 1013.3
20170820002059 59 157 0.0 0.0 0.00 0.00 0.00 85 1013.2
20170820001559 59 247 0.0 0.0 0.00 0.00 0.00 85 1013.2
20170820001059 59 247 0.0 0.0 0.00 0.00 0.00 85 1013.2
20170820000559 59 247 0.0 0.0 0.00 0.00 0.00 85 1013.2
20170820000059 59 247 0.0 0.0 0.00 0.00 0.00 85 1013.3
20170819235559 59 247 0.0 0.0 0.00 0.00 0.00 85 1013.4
20170819235059 59 247 0.0 0.0 0.00 0.00 0.00 85 1013.4
20170819234559 59 225 0.0 0.0 0.00 0.00 0.00 85 1013.4
20170819234059 59 292 0.0 0.0 0.00 0.00 0.00 85 1013.4
20170819233559 59 292 0.0 0.0 0.00 0.00 0.00 85 1013.3
20170819233059 59 292 0.0 0.0 0.00 0.00 0.00 85 1013.4
20170819232559 59 270 0.0 0.0 0.00 0.00 0.00 85 1013.4
20170819232059 59 247 1.0 0.0 0.00 0.00 0.00 85 1013.3
20170819231558 60 247 1.0 0.0 0.00 0.00 0.00 85 1013.3
20170819231058 60 270 1.0 0.0 0.00 0.00 0.00 85 1013.1
20170819230558 60 270 2.0 0.0 0.00 0.00 0.00 85 1013.1
20170819230058 60 270 1.0 0.0 0.00 0.00 0.00 85 1013.2
20170819225559 60 292 2.0 0.0 0.00 0.00 0.00 85 1013.1
20170819225059 60 270 2.0 0.0 0.00 0.00 0.00 85 1013.3
20170819224559 60 247 2.0 0.0 0.00 0.00 0.00 85 1013.3
20170819224059 60 270 0.0 0.0 0.00 0.00 0.00 85 1013.2
20170819223559 60 270 0.0 0.0 0.00 0.00 0.00 85 1013.3
20170819223059 60 270 0.0 0.0 0.00 0.00 0.00 85 1013.3
20170819222559 60 270 0.0 0.0 0.00 0.00 0.00 85 1013.3
20170819222059 60 270 1.0 0.0 0.00 0.00 0.00 85 1013.3
20170819221559 60 247 0.0 0.0 0.00 0.00 0.00 85 1013.3
20170819221059 60 247 0.0 0.0 0.00 0.00 0.00 85 1013.3
20170819220559 60 247 0.0 0.0 0.00 0.00 0.00 85 1013.4
20170819220059 60 247 0.0 0.0 0.00 0.00 0.00 85 1013.4
20170819215559 60 247 0.0 0.0 0.00 0.00 0.00 85 1013.5
20170819215059 60 247 0.0 0.0 0.00 0.00 0.00 85 1013.5
20170819214559 60 247 0.0 0.0 0.00 0.00 0.00 85 1013.5
20170819214059 60 247 0.0 0.0 0.00 0.00 0.00 85 1013.6
20170819213559 60 247 1.0 0.0 0.00 0.00 0.00 85 1013.6
20170819213059 60 270 0.0 0.0 0.00 0.00 0.00 85 1013.5
20170819212559 60 270 0.0 0.0 0.00 0.00 0.00 85 1013.6
20170819212059 60 270 0.0 0.0 0.00 0.00 0.00 85 1013.6
20170819211558 60 270 0.0 0.0 0.00 0.00 0.00 85 1013.7
20170819211059 60 270 0.0 0.0 0.00 0.00 0.00 85 1013.5
20170819210559 60 270 0.0 0.0 0.00 0.00 0.00 85 1013.5
20170819210059 60 270 0.0 0.0 0.00 0.00 0.00 85 1013.4
20170819205559 60 270 0.0 0.0 0.00 0.00 0.00 85 1013.5
20170819205059 60 270 0.0 0.0 0.00 0.00 0.00 85 1013.5
20170819204559 61 270 0.0 0.0 0.00 0.00 0.00 85 1013.7
20170819204059 61 270 0.0 0.0 0.00 0.00 0.00 85 1013.6
20170819203559 60 270 0.0 0.0 0.00 0.00 0.00 85 1013.8
20170819203059 61 270 0.0 0.0 0.00 0.00 0.00 85 1013.8
20170819202559 61 270 0.0 0.0 0.00 0.00 0.00 85 1013.8
20170819202059 61 270 0.0 0.0 0.00 0.00 0.00 85 1013.7
20170819201559 61 270 0.0 0.0 0.00 0.00 0.00 85 1013.6
20170819201059 61 270 0.0 0.0 0.00 0.00 0.00 85 1013.5
20170819200559 60 270 0.0 0.0 0.00 0.00 0.00 85 1013.4
20170819200059 60 270 0.0 0.0 0.00 0.00 0.00 85 1013.3
20170819195559 60 270 0.0 0.0 0.00 0.00 0.00 85 1013.4
20170819195059 60 270 0.0 0.0 0.00 0.00 0.00 85 1013.3
20170819194559 61 270 0.0 0.0 0.00 0.00 0.00 85 1013.2
20170819194059 61 292 1.0 0.0 0.00 0.00 0.00 85 1013.4
20170819193559 61 292 1.0 0.0 0.00 0.00 0.00 85 1013.3
20170819193059 61 270 3.0 0.0 0.00 0.00 0.00 85 1013.4
20170819192559 61 270 3.0 0.0 0.00 0.00 0.00 85 1013.3
20170819192059 61 270 0.0 0.0 0.00 0.00 0.00 85 1013.4
20170819191559 61 247 2.0 0.0 0.00 0.00 0.00 85 1013.4
20170819191059 61 247 1.0 0.0 0.00 0.00 0.00 85 1013.5
20170819190600 61 247 2.0 0.0 0.00 0.00 0.00 85 1013.4
20170819190059 61 270 1.0 0.0 0.00 0.00 0.00 85 1013.2
20170819185559 61 270 2.0 0.0 0.00 0.00 0.00 85 1013.1
20170819185059 61 270 4.0 0.0 0.00 0.00 0.00 85 1012.9
20170819184600 61 270 1.0 0.0 0.00 0.00 0.00 85 1012.8
20170819184100 61 270 2.0 0.0 0.00 0.00 0.00 85 1012.7
20170819183559 61 270 0.0 0.0 0.00 0.00 0.00 85 1012.7
20170819183059 61 270 1.0 0.0 0.00 0.00 0.00 85 1012.7
20170819182559 61 270 0.0 0.0 0.00 0.00 0.00 85 1012.7
20170819182059 61 247 0.0 0.0 0.00 0.00 0.00 85 1012.6
20170819181559 61 270 1.0 0.0 0.00 0.00 0.00 85 1012.6
20170819181059 61 270 1.0 0.0 0.00 0.00 0.00 85 1012.4
20170819180559 61 270 0.0 0.0 0.00 0.00 0.00 85 1012.3
20170819180059 61 270 0.0 0.0 0.00 0.00 0.00 85 1012.2
20170819175559 61 270 0.0 0.0 0.00 0.00 0.00 85 1012.2
20170819175059 61 270 1.0 0.0 0.00 0.00 0.00 85 1012.2
20170819174559 62 337 2.0 0.0 0.00 0.00 0.00 85 1012.1
20170819174100 62 292 0.0 0.0 0.00 0.00 0.00 84 1012.1
20170819173559 62 315 0.0 0.0 0.00 0.00 0.00 84 1012.1
20170819173059 62 315 3.0 0.0 0.00 0.00 0.00 84 1012.1
20170819172559 62 270 0.0 0.0 0.00 0.00 0.00 84 1012.1
20170819172059 62 292 0.0 0.0 0.00 0.00 0.00 84 1012.4
20170819171600 63 270 0.0 0.0 0.00 0.00 0.00 84 1012.5
20170819171100 63 292 3.0 0.0 0.00 0.00 0.00 84 1012.4
20170819170559 63 292 1.0 0.0 0.00 0.00 0.00 84 1012.4
20170819170100 63 337 0.0 0.0 0.00 0.00 0.00 83 1012.1
20170819165600 63 315 1.0 0.0 0.00 0.00 0.00 83 1012.1
20170819165100 63 292 2.0 0.0 0.00 0.00 0.00 83 1012.1
20170819164600 63 270 1.0 0.0 0.00 0.00 0.00 83 1012.2
20170819164100 63 270 2.0 0.0 0.00 0.00 0.00 83 1012.0
20170819163600 64 315 4.0 0.0 0.00 0.00 0.00 83 1012.0
20170819163100 64 315 4.0 0.0 0.00 0.00 0.00 83 1011.9
20170819162600 64 247 2.0 0.0 0.00 0.00 0.00 83 1011.9
20170819162100 64 315 5.0 0.0 0.00 0.00 0.00 83 1011.9
20170819161600 64 337 4.0 0.0 0.00 0.00 0.00 84 1012.0
20170819161100 65 315 1.0 0.0 0.00 0.00 0.00 83 1012.2
20170819160600 65 292 5.0 0.0 0.00 0.00 0.00 82 1012.3
20170819160059 65 270 3.0 0.0 0.00 0.00 0.00 80 1012.3
20170819155600 66 337 2.0 0.0 0.00 0.00 0.00 78 1012.5
20170819155100 66 270 2.0 0.0 0.00 0.00 0.00 76 1012.7
20170819154600 67 225 6.0 0.0 0.00 0.00 0.00 75 1013.0
20170819154100 67 270 6.0 0.0 0.00 0.00 0.00 74 1012.3
20170819153559 67 315 12.0 0.0 0.00 0.00 0.00 74 1011.7
20170819153112 67 315 6.0 0.0 0.00 0.00 0.00 73 1011.4
20170819152600 67 292 7.0 0.0 0.00 0.00 0.00 73 1011.4
20170819152100 67 315 8.0 0.0 0.00 0.00 0.00 72 1011.4
20170819151600 68 247 4.0 0.0 0.00 0.00 0.00 72 1011.2
20170819151100 68 270 4.0 0.0 0.00 0.00 0.00 72 1011.2
20170819150600 68 270 8.0 0.0 0.00 0.00 0.00 72 1011.1
20170819150100 68 292 9.0 0.0 0.00 0.00 0.00 72 1010.8
20170819145600 68 315 6.0 0.0 0.00 0.00 0.00 72 1010.8
20170819145100 68 202 9.0 0.0 0.00 0.00 0.00 71 1011.0
20170819144600 69 292 6.0 0.0 0.00 0.00 0.00 70 1011.0
20170819144100 69 270 5.0 0.0 0.00 0.00 0.00 70 1011.1
20170819143600 69 247 5.0 0.0 0.00 0.00 0.00 70 1010.9
20170819143100 69 270 8.0 0.0 0.00 0.00 0.00 70 1010.8
20170819142600 69 292 4.0 0.0 0.00 0.00 0.00 70 1010.9
20170819142100 69 292 6.0 0.0 0.00 0.00 0.00 70 1011.0
20170819141600 69 247 10.0 0.0 0.00 0.00 0.00 70 1010.9
20170819141100 70 270 8.0 0.0 0.00 0.00 0.00 71 1010.8
20170819140600 70 225 8.0 0.0 0.00 0.00 0.00 71 1010.8
20170819140100 71 247 10.0 0.0 0.00 0.00 0.00 71 1010.8
20170819135600 71 292 11.0 0.0 0.00 0.00 0.00 71 1010.7
20170819135100 71 247 8.0 0.0 0.00 0.00 0.00 70 1010.6
20170819134600 72 247 11.0 0.0 0.00 0.00 0.00 70 1010.5
20170819134100 72 270 8.0 0.0 0.00 0.00 0.00 68 1010.6
20170819133600 73 270 12.0 0.0 0.00 0.00 0.00 67 1010.6
20170819133123 73 270 9.0 0.0 0.00 0.00 0.00 67 1010.4
20170819132600 73 315 6.0 0.0 0.00 0.00 0.00 68 1010.4
20170819132100 73 270 11.0 0.0 0.00 0.00 0.00 68 1010.4
20170819131600 74 270 10.0 0.0 0.00 0.00 0.00 66 1010.4
20170819131100 74 315 13.0 0.0 0.00 0.00 0.00 66 1010.2
20170819130600 74 315 12.0 0.0 0.00 0.00 0.00 66 1010.2
20170819130100 75 270 6.0 0.0 0.00 0.00 0.00 65 1010.1
20170819125600 75 270 18.0 0.0 0.00 0.00 0.00 63 1010.1
20170819125100 76 247 12.0 0.0 0.00 0.00 0.00 62 1010.1
20170819124601 76 270 9.0 0.0 0.00 0.00 0.00 63 1010.1
20170819124100 76 247 7.0 0.0 0.00 0.00 0.00 63 1010.1
20170819123600 76 315 14.0 0.0 0.00 0.00 0.00 63 1010.0
20170819123100 76 225 6.0 0.0 0.00 0.00 0.00 63 1009.9
20170819122601 76 292 11.0 0.0 0.00 0.00 0.00 62 1009.9
20170819122101 76 292 6.0 0.0 0.00 0.00 0.00 60 1009.9
20170819121601 77 292 10.0 0.0 0.00 0.00 0.00 59 1009.7
20170819121100 78 270 17.0 0.0 0.00 0.00 0.00 58 1009.6
20170819120600 77 270 13.0 0.0 0.00 0.00 0.00 59 1009.7
20170819120100 77 247 11.0 0.0 0.00 0.00 0.00 59 1009.6
20170819115601 78 292 12.0 0.0 0.00 0.00 0.00 58 1009.6
20170819115100 78 315 10.0 0.0 0.00 0.00 0.00 58 1009.5
20170819114600 78 315 6.0 0.0 0.00 0.00 0.00 58 1009.6
20170819114100 79 292 9.0 0.0 0.00 0.00 0.00 57 1009.5
20170819113601 79 270 12.0 0.0 0.00 0.00 0.00 56 1009.5
20170819113100 80 247 9.0 0.0 0.00 0.00 0.00 55 1009.4
20170819112600 80 315 9.0 0.0 0.00 0.00 0.00 54 1009.2
20170819112100 80 315 7.0 0.0 0.00 0.00 0.00 54 1009.1
20170819111601 80 247 12.0 0.0 0.00 0.00 0.00 53 1009.0
20170819111101 81 315 13.0 0.0 0.00 0.00 0.00 52 1008.9
20170819110601 81 247 7.0 0.0 0.00 0.00 0.00 51 1008.9
20170819110100 82 270 6.0 0.0 0.00 0.00 0.00 48 1008.6
20170819105601 83 247 9.0 0.0 0.00 0.00 0.00 47 1008.4
20170819105100 84 292 12.0 0.0 0.00 0.00 0.00 47 1008.3
20170819104600 83 247 7.0 0.0 0.00 0.00 0.00 48 1008.3
20170819104100 83 292 5.0 0.0 0.00 0.00 0.00 48 1008.2
20170819103600 83 292 5.0 0.0 0.00 0.00 0.00 48 1008.2
20170819103100 83 247 4.0 0.0 0.00 0.00 0.00 48 1008.1
20170819102600 83 270 7.0 0.0 0.00 0.00 0.00 48 1008.1
20170819102101 83 225 8.0 0.0 0.00 0.00 0.00 48 1008.0
20170819101600 83 247 5.0 0.0 0.00 0.00 0.00 47 1008.0
20170819101101 83 247 9.0 0.0 0.00 0.00 0.00 47 1007.8
20170819100600 83 270 5.0 0.0 0.00 0.00 0.00 47 1007.8
20170819100100 83 247 6.0 0.0 0.00 0.00 0.00 47 1007.8
20170819095601 83 247 2.0 0.0 0.00 0.00 0.00 46 1007.8
20170819095102 83 270 7.0 0.0 0.00 0.00 0.00 46 1007.8
20170819094601 83 270 5.0 0.0 0.00 0.00 0.00 46 1007.8
20170819094101 83 225 7.0 0.0 0.00 0.00 0.00 46 1007.8
20170819093603 83 225 6.0 0.0 0.00 0.00 0.00 46 1007.7
20170819093101 83 247 4.0 0.0 0.00 0.00 0.00 46 1007.7
20170819092603 83 225 5.0 0.0 0.00 0.00 0.00 46 1007.7
20170819092105 83 270 7.0 0.0 0.00 0.00 0.00 45 1007.7
20170819091614 83 270 9.0 0.0 0.00 0.00 0.00 46 1007.6
20170819091101 83 270 5.0 0.0 0.00 0.00 0.00 45 1007.6
20170819090600 84 247 11.0 0.0 0.00 0.00 0.00 45 1007.6
20170819090100 84 292 8.0 0.0 0.00 0.00 0.00 45 1007.5
20170819085600 84 270 3.0 0.0 0.00 0.00 0.00 45 1007.5
20170819085100 84 247 8.0 0.0 0.00 0.00 0.00 45 1007.4
20170819084600 83 225 7.0 0.0 0.00 0.00 0.00 44 1007.4
20170819084101 83 225 7.0 0.0 0.00 0.00 0.00 44 1007.3
20170819083601 83 270 9.0 0.0 0.00 0.00 0.00 45 1007.3
20170819083101 83 247 7.0 0.0 0.00 0.00 0.00 44 1007.3
20170819082600 83 225 8.0 0.0 0.00 0.00 0.00 45 1007.3
20170819082101 83 225 6.0 0.0 0.00 0.00 0.00 46 1007.3
20170819081600 83 225 5.0 0.0 0.00 0.00 0.00 46 1007.3
20170819081101 82 202 6.0 0.0 0.00 0.00 0.00 47 1007.3
20170819080600 82 247 6.0 0.0 0.00 0.00 0.00 48 1007.3
20170819080101 81 247 4.0 0.0 0.00 0.00 0.00 50 1007.3
20170819075600 81 225 5.0 0.0 0.00 0.00 0.00 52 1007.3
20170819075101 80 247 4.0 0.0 0.00 0.00 0.00 51 1007.3
20170819074600 80 202 9.0 0.0 0.00 0.00 0.00 52 1007.3
20170819074100 79 202 6.0 0.0 0.00 0.00 0.00 55 1007.2
20170819073601 78 202 2.0 0.0 0.00 0.00 0.00 58 1007.1
20170819073101 77 157 4.0 0.0 0.00 0.00 0.00 61 1007.1
20170819072600 77 247 5.0 0.0 0.00 0.00 0.00 62 1007.0
20170819072101 76 180 3.0 0.0 0.00 0.00 0.00 63 1007.0
20170819071601 76 157 2.0 0.0 0.00 0.00 0.00 64 1006.9
20170819071101 75 247 3.0 0.0 0.00 0.00 0.00 64 1007.0
20170819070601 74 225 3.0 0.0 0.00 0.00 0.00 66 1006.9
20170819070100 73 157 2.0 0.0 0.00 0.00 0.00 68 1007.0
20170819065601 73 157 3.0 0.0 0.00 0.00 0.00 70 1007.0
20170819065101 72 157 2.0 0.0 0.00 0.00 0.00 71 1007.0
20170819064601 72 157 2.0 0.0 0.00 0.00 0.00 72 1007.0
20170819064101 71 157 2.0 0.0 0.00 0.00 0.00 72 1007.0
20170819063601 71 157 2.0 0.0 0.00 0.00 0.00 72 1007.0
20170819063101 70 157 4.0 0.0 0.00 0.00 0.00 73 1007.0
20170819062601 70 157 3.0 0.0 0.00 0.00 0.00 74 1007.0
20170819062101 70 157 1.0 0.0 0.00 0.00 0.00 74 1007.0
20170819061601 69 202 3.0 0.0 0.00 0.00 0.00 74 1007.0
20170819061101 69 157 0.0 0.0 0.00 0.00 0.00 75 1006.9
20170819060601 68 135 2.0 0.0 0.00 0.00 0.00 75 1006.9